Zurück zum Katalog

COSMOS 2425

GLONASS

AktivNavigationMEO
NORAD 29670·PAYLOAD·🇷🇺 Russia

Gestartet Dec 25, 2006 von Baikonur Cosmodrome

Loading…

Nächste Überflüge (nächste 24 Stunden)

TLE

AktuellSource: Space-Track

Epoche: Sep 13, 2026, 11:43 UTC

1 29670U 06062A   26256.48829913  .00000016  00000-0  00000-0 0  9990
2 29670  64.6947 191.3482 0022909 353.4785 185.8917  2.13117690153465

Verfolge COSMOS 2425 in Echtzeit mit AllMySat

Download on the App Store